星链-37275(STARLINK-37275)
导读 | 豆包AI
STARLINK-37275(NORAD编号:68725)是SpaceX星链(Starlink)星座中的一颗低轨互联网通信卫星,归属SpaceX公司的星链全球互联网项目。该项目旨在通过批量部署近地轨道小卫星,为全球未覆盖互联网服务的区域提供低延迟、高速率的网络接入服务。 作为星链批量生产的组网卫星之一,STARLINK-37275运行在近地轨道,配合地面收发设备实现全球网络互联,助力星链完成全球通信覆盖的组网目标,目前可对其轨道进行跟踪监测。
Basic Information
目录编号:
68725
目录名称:
STARLINK-37275
国际标识:
2026-081AC
轨道中心:
EARTH
卫星名称:
星链-37275
卫星全名:
星链-37275(STARLINK-37275)
卫星状态:
在轨 (已飞行41 天)
发射日期:
2026-04-14 UTC
国别 :
美国
(US)
星等 :
--
Orbit Information
| 数据来源 | 国际轨道数据 | AOE轨道数据 |
| 星历时间 | 2026-05-23T08:03:38+0800 2天前 查看轨道信息 | 2026-05-21T21:00:00+0800 3天前 查看轨道信息 |
| 半长轴 | 6796.849km | 6796.882km |
| 偏心率 | 0.0001006 | 0.0001323 |
| 轨道倾角 | 53.159° | 53.160° |
| 近地点辐角 | 86.625° | 101.534° |
| 升交点赤经 | 50.127° | 57.114° |
| 平近点角 | 273.488° | 25.937° |
| 近地点 | 418.028km | 417.845km |
| 远地点 | 419.396km | 419.645km |
| 周期 | 92.944分钟 | 92.945分钟 |
| 每日圈数 | 15.493208 | 15.493097 |
Detailed Information
固有亮度:
5
最大亮度:
2.5
卫星平台:
Starlink V1.0
覆盖范围:
全球
运营商:
太空探索技术公司
运营商所在国:
美国
制造商(研发单位):
太空探索技术公司
制造商所在国:
美国
使用方式:
暂无
Satellite Introduction
Starlink 计划是 SpaceX 推出的全球卫星互联网项目,通过发射低轨道卫星,为全球尤其是偏远地区提供高速、低延迟的互联网服务。自 2019 年起,Starlink 已部署数千颗卫星,旨在缩小全球数字鸿沟,推动互联网普及。该项目还为军事、航空等行业提供通信支持,带来广泛经济效益。
2D Orbit Map
3D Orbit Map
Orbit Altitude Analysis Chart
Orbit Inclination Analysis Chart
Orbit Comprehensive Analysis Chart
View Comprehensive Chart

